User: anonymous   Login
Location: Lane
(33.5226°N, 79.8788°W)
Time: 23:36:19
(UTC+00:00)
Language:

Vanguard 2 Rocket - Orbit

View from above orbital plane
View from above orbital plane
View from above satellite
View from above satellite

Ground track
Ground track

The orbit data is extracted from the following two-line orbital elements,

1 00012U 59001B   24051.41897057  .00001177  00000-0  67827-3 0  9990
2 00012  32.9113 328.0573 1658363 302.8191  42.3230 11.45983678433914
Epoch (UTC): 20 February 2024 10:03:19
Eccentricity: 0.1658363
inclination: 32.9113°
perigee height: 554 km
apogee height: 3310 km
right ascension of ascending node: 328.0573°
argument of perigee: 302.8191°
revolutions per day: 11.45983678
mean anomaly at epoch: 42.3230°
orbit number at epoch: 43391

The dashed part of the orbit path shows where the satellite is in the earth's shadow,  

DLR